Flag for Germany Weather past 2 weeks in Lehrte, Lower Saxony, Germany

Now
73 °F

Passing clouds.


Feels Like: 77 °F
Forecast: 60 / 71 °F
Wind: 5 mph from Southwest

Location: Hannover

Current Time: Aug 28, 2014 at 3:24:28 PM

Latest Report: Aug 28, 2014 at 3:00 PM


Visibility: 25 mi

Pressure: 30.01 "Hg

Humidity: 47%

Dew point: 52 °F

Location of LehrteLocation

Historic Weather in Lehrte — Graph

°F

Lehrte temperature yesterday

Maximum temperature yesterday: 69 °F (at 5:00 PM)
Minimum temperature yesterday: 43 °F (at 5:00 AM)
Average temperature yesterday: 55 °F

Past Weeks' High & Low Weather Summary

 TemperatureHumidityPressure
High72 °F (Aug 13, 4:00 PM)100% (Aug 25, 7:00 AM)30.07 "Hg (Aug 25, 7:00 AM)
Low43 °F (Aug 25, 6:00 AM)44% (Aug 28, 1:00 PM)29.60 "Hg (Aug 18, 2:00 PM)
Average57 °F79%29.88 "Hg
* Reported Aug 13 2:00 PM — Aug 28 2:00 PM, Lehrte, Weather by CustomWeather, © 2014

Note: Actual official high and low records may vary slightly from our data, if they occured in-between our weather recording intervals... More about our weather records

Advertising

Lehrte weather history for previous 24 hours

 ConditionsComfort  
Time TempWeatherWind HumidityBarometerVisibility
2:00 PM
Aug 28
72 °FPassing clouds.5 mph48%30.02 "Hg25 mi
1:00 PM71 °FPassing clouds.5 mph44%30.03 "Hg25 mi
12:00 PM70 °FPassing clouds.6 mph50%30.04 "Hg22 mi
10:00 AM64 °FPassing clouds.3 mph64%30.06 "Hg19 mi
9:00 AM59 °FPassing clouds.3 mph77%30.06 "Hg16 mi
8:00 AM50 °FPassing clouds.2 mph94%30.06 "Hg16 mi
7:00 AM46 °FFog.1 mph99%30.06 "Hg16 mi
6:00 AM43 °FFog.No wind97%30.06 "Hg1 mi
4:00 AM46 °FFog.1 mph97%30.06 "Hg16 mi
3:00 AM47 °FFog.1 mph97%30.06 "Hg19 mi
2:00 AM47 °FFog.1 mph95%30.07 "Hg1 mi
1:00 AM49 °FFog.No wind95%30.07 "Hg1 mi
12:00 AM50 °FPassing clouds.N/A94%30.06 "Hg25 mi
11:00 PM
Aug 27
51 °FFog.No wind92%30.06 "Hg25 mi
10:00 PM53 °FFog.No wind84%30.05 "Hg25 mi
9:00 PM57 °FFog.No wind79%30.04 "Hg25 mi
8:00 PM64 °FPassing clouds.2 mph66%30.03 "Hg31 mi
7:00 PM68 °FPassing clouds.1 mph56%30.02 "Hg31 mi
6:00 PM68 °FPassing clouds.5 mph48%30.02 "Hg31 mi
5:00 PM69 °FPassing clouds.3 mph46%30.02 "Hg28 mi
4:00 PM67 °FPassing clouds.2 mph59%30.03 "Hg25 mi
3:00 PM68 °FScattered clouds.2 mph59%30.03 "Hg25 mi
Weather by CustomWeather, © 2014

See weather overviewHow to use our weather pages